Date_and_time,latitude,longitude,wind_speed,RelWindDirFrom,WindDirFrom,air_pressure,air_temperature,relative_humidity,Temp,platform_speed_wrt_ground,air_pressure_at_mean_sea_level,platform_orientation
2019-12-08 23:50,50.6304516666667,-96.9807783333333,8.4,12.4,333,993.30,-19.9,67,0.60,0.0,1023.50,360.0
2019-12-09 00:00,50.63045,-96.9807833333333,8.2,11.0,328,993.29,-20.0,66,0.60,0.0,1023.52,317.2
2019-12-09 00:00,50.63045,-96.98078,7.6,7.6,331,993.31,-20.0,66,0.59,0.0,1023.53,347.4
2019-12-09 00:10,50.63046,-96.9807783333333,7.7,10.8,330,993.43,-20.1,65,0.59,0.0,1023.67,347.4
2019-12-09 00:20,50.6304516666667,-96.9807716666667,7.3,11.1,325,993.58,-20.1,65,0.59,0.0,1023.83,347.4
2019-12-09 00:30,50.63045,-96.9807683333333,7.0,9.7,330,993.81,-20.2,64,0.59,0.0,1024.07,347.4
2019-12-09 00:40,50.63045,-96.980765,7.4,10.0,327,993.85,-20.2,65,0.59,0.0,1024.11,347.4
2019-12-09 00:50,50.6304516666667,-96.980765,7.3,10.9,328,993.96,-20.2,64,0.58,0.0,1024.23,347.4
2019-12-09 01:00,50.6304533333333,-96.980765,7.0,10.1,326,994.06,-20.2,65,0.58,0.0,1024.34,90.0
2019-12-09 01:10,50.6304633333333,-96.9807566666667,8.6,11.0,338,993.99,-20.2,64,0.57,0.0,1024.27,90.0
2019-12-09 01:20,50.630465,-96.9807683333333,8.2,11.1,335,994.02,-20.2,65,0.57,0.0,1024.30,90.0
2019-12-09 01:30,50.6304216666667,-96.9807666666667,7.1,11.1,332,994.03,-20.2,65,0.57,0.0,1024.32,90.0
2019-12-09 01:40,50.6304366666667,-96.9807616666667,7.8,10.0,334,994.01,-20.2,65,0.57,0.0,1024.30,90.0
2019-12-09 01:50,50.6304516666667,-96.9807683333333,7.3,10.2,332,994.00,-20.3,65,0.57,0.0,1024.30,90.0
2019-12-09 02:00,50.63045,-96.9807633333333,8.5,12.6,337,993.90,-20.3,65,0.57,0.0,1024.20,90.0
2019-12-09 02:10,50.6304516666667,-96.980765,8.5,12.9,333,993.93,-20.3,65,0.56,0.0,1024.23,90.0
2019-12-09 02:20,50.6304683333333,-96.98076,9.6,12.6,338,993.86,-20.4,65,0.56,0.0,1024.17,90.0
2019-12-09 02:30,50.630465,-96.9807716666667,7.6,10.5,334,993.89,-20.4,67,0.56,0.0,1024.21,90.0
2019-12-09 02:40,50.6304616666667,-96.9807633333333,8.3,11.3,336,993.87,-20.5,67,0.55,0.0,1024.19,90.0
2019-12-09 02:50,50.63046,-96.9807633333333,9.2,14.0,340,993.74,-20.6,68,0.55,0.0,1024.06,90.0
2019-12-09 03:00,50.6304616666667,-96.9807616666667,8.7,11.7,335,993.69,-20.8,68,0.55,0.0,1024.03,57.7
2019-12-09 03:10,50.630455,-96.9807616666667,6.9,10.6,334,993.78,-20.9,69,0.54,0.0,1024.12,57.7
2019-12-09 03:20,50.6304583333333,-96.9807516666667,6.1,9.1,330,993.83,-21.1,70,0.54,0.0,1024.18,57.7
2019-12-09 03:30,50.63046,-96.9807616666667,7.2,10.2,332,993.67,-21.2,71,0.54,0.0,1024.02,57.7
2019-12-09 03:40,50.6304583333333,-96.9807633333333,7.3,10.1,332,993.39,-21.4,71,0.53,0.0,1023.76,57.7
2019-12-09 03:50,50.630465,-96.980785,7.5,10.1,332,993.33,-21.5,72,0.53,0.0,1023.70,57.7
2019-12-09 04:00,50.6304583333333,-96.9807666666667,7.8,11.0,330,993.26,-21.6,72,0.52,0.0,1023.63,360.0
2019-12-09 04:10,50.6304583333333,-96.980765,6.5,8.9,326,993.37,-21.7,73,0.52,0.0,1023.77,360.0
2019-12-09 04:20,50.6304566666667,-96.9807616666667,5.9,8.0,325,993.48,-21.8,73,0.52,0.0,1023.88,360.0
2019-12-09 04:30,50.6304583333333,-96.9807616666667,6.0,7.7,325,993.36,-21.8,73,0.51,0.0,1023.77,360.0
2019-12-09 04:40,50.6304583333333,-96.98076,5.7,7.7,324,993.37,-21.8,73,0.51,0.0,1023.78,360.0
2019-12-09 04:50,50.6304583333333,-96.98076,5.5,7.3,319,993.31,-21.8,73,0.51,0.0,1023.73,360.0
2019-12-09 05:00,50.6304583333333,-96.9807633333333,5.5,7.3,316,993.25,-22.0,73,0.50,0.0,1023.68,38.0
2019-12-09 05:10,50.6304566666667,-96.980775,5.6,7.3,315,993.25,-22.0,73,0.49,0.0,1023.69,38.0
2019-12-09 05:20,50.6304633333333,-96.9807683333333,5.7,7.8,319,993.24,-22.0,73,0.49,0.0,1023.69,38.0
2019-12-09 05:30,50.6304633333333,-96.9807666666667,5.5,7.0,320,993.15,-22.0,73,0.48,0.0,1023.61,38.0
2019-12-09 05:40,50.6304616666667,-96.9807683333333,5.3,7.4,319,993.04,-22.0,73,0.48,0.0,1023.50,38.0
2019-12-09 05:50,50.63046,-96.9807666666667,5.3,7.4,322,992.95,-22.1,73,0.48,0.0,1023.43,38.0
2019-12-09 06:00,50.63046,-96.9807666666667,5.0,6.4,319,992.83,-22.1,73,0.48,0.0,1023.31,192.6
2019-12-09 06:10,50.63046,-96.9807633333333,5.3,6.9,315,992.73,-22.2,73,0.48,0.0,1023.22,192.6
2019-12-09 06:20,50.63046,-96.9807633333333,6.1,8.5,317,992.62,-22.3,73,0.47,0.0,1023.11,192.6
2019-12-09 06:30,50.63046,-96.9807616666667,5.0,6.8,311,992.55,-22.4,74,0.47,0.0,1023.05,192.6
2019-12-09 06:40,50.6304483333333,-96.980765,4.4,6.2,304,992.45,-22.5,75,0.47,0.0,1022.95,192.6
2019-12-09 06:50,50.6304466666667,-96.980755,4.6,7.0,300,992.41,-22.6,76,0.46,0.0,1022.92,192.6
2019-12-09 07:00,50.6304416666667,-96.9807333333333,5.7,7.7,302,992.33,-22.8,76,0.46,0.0,1022.86,137.0
2019-12-09 07:10,50.630465,-96.980805,5.4,7.3,306,992.17,-22.9,76,0.46,0.0,1022.70,137.0
2019-12-09 07:20,50.6304616666667,-96.98078,5.7,7.5,306,992.12,-23.0,76,0.45,0.0,1022.65,137.0
2019-12-09 07:30,50.63046,-96.9807716666667,5.6,7.7,302,992.04,-23.1,76,0.45,0.0,1022.58,137.0
2019-12-09 07:40,50.6304583333333,-96.98077,5.1,7.1,300,991.96,-23.1,76,0.45,0.0,1022.50,137.0
2019-12-09 07:50,50.6304583333333,-96.9807683333333,4.7,6.3,298,991.83,-23.1,76,0.45,0.0,1022.37,137.0
2019-12-09 08:00,50.6304666666667,-96.9807733333333,4.5,6.7,302,991.71,-23.2,76,0.45,0.0,1022.25,345.5
2019-12-09 08:10,50.630465,-96.9807766666667,4.4,6.2,301,991.52,-23.2,76,0.45,0.0,1022.07,345.5
2019-12-09 08:20,50.6304683333333,-96.9807783333333,4.9,6.8,303,991.33,-23.3,76,0.46,0.0,1021.88,345.5
2019-12-09 08:30,50.6304633333333,-96.980765,4.8,6.7,294,991.42,-23.4,76,0.45,0.0,1021.99,345.5
2019-12-09 08:40,50.6304616666667,-96.9807666666667,4.5,5.9,290,991.39,-23.5,76,0.45,0.0,1021.97,345.5
2019-12-09 08:50,50.63046,-96.9807633333333,4.4,6.1,283,991.41,-23.6,76,0.45,0.0,1022.00,345.5
2019-12-09 09:00,50.63046,-96.9807633333333,5.0,6.2,282,991.32,-23.6,76,0.44,0.0,1021.93,0.0
2019-12-09 09:10,50.6304533333333,-96.9807666666667,4.8,6.5,277,991.26,-23.8,76,0.45,0.0,1021.88,0.0
2019-12-09 09:20,50.63046,-96.980775,5.1,6.7,281,991.28,-23.8,76,0.44,0.0,1021.90,0.0
2019-12-09 09:30,50.6304616666667,-96.980775,5.0,6.4,280,991.25,-23.8,76,0.44,0.0,1021.88,0.0
2019-12-09 09:40,50.6304616666667,-96.980775,4.6,6.1,281,991.08,-23.9,76,0.44,0.0,1021.70,0.0
2019-12-09 09:50,50.63046,-96.9807733333333,4.1,6.1,282,990.92,-23.9,76,0.44,0.0,1021.55,0.0
2019-12-09 10:00,50.63046,-96.9807733333333,4.9,6.3,283,990.81,-23.9,76,0.44,0.0,1021.43,309.1
2019-12-09 10:10,50.63046,-96.9807716666667,4.6,6.4,279,990.79,-23.8,76,0.44,0.0,1021.41,309.1
2019-12-09 10:20,50.63046,-96.9807733333333,5.9,8.2,286,990.83,-23.9,75,0.44,0.0,1021.46,309.1
2019-12-09 10:30,50.6304566666667,-96.9807833333333,5.4,7.4,288,990.76,-24.0,75,0.43,0.0,1021.40,309.1
2019-12-09 10:40,50.63045,-96.9807616666667,5.1,7.6,282,990.55,-24.0,75,0.43,0.0,1021.19,309.1
2019-12-09 10:50,50.6304516666667,-96.9807683333333,5.3,7.4,285,990.43,-24.1,75,0.42,0.0,1021.08,309.1
2019-12-09 11:00,50.6304683333333,-96.9807733333333,5.7,7.7,289,990.37,-24.1,75,0.42,0.0,1021.02,0.0
2019-12-09 11:10,50.630455,-96.980755,5.5,7.5,285,990.28,-24.1,74,0.42,0.0,1020.94,0.0
2019-12-09 11:20,50.63045,-96.9807633333333,4.7,6.9,281,990.09,-24.1,74,0.41,0.0,1020.74,0.0
2019-12-09 11:30,50.6304483333333,-96.9807716666667,2.9,4.5,255,989.77,-24.0,74,0.41,0.0,1020.41,0.0
2019-12-09 11:40,50.630445,-96.9807733333333,3.4,5.0,264,989.64,-24.1,74,0.41,0.0,1020.28,0.0
2019-12-09 11:50,50.6304383333333,-96.9807733333333,2.5,4.4,247,989.42,-24.2,74,0.41,0.0,1020.06,0.0
2019-12-09 12:00,50.6304416666667,-96.9807716666667,1.8,3.0,221,989.24,-24.4,74,0.41,0.0,1019.88,360.0
2019-12-09 12:10,50.6304433333333,-96.9807716666667,3.7,4.5,197,988.82,-24.4,75,0.41,0.0,1019.45,360.0
2019-12-09 12:20,50.6304433333333,-96.98077,3.3,4.1,205,988.62,-24.3,75,0.40,0.0,1019.25,360.0
2019-12-09 12:30,50.6304516666667,-96.9807683333333,2.9,4.2,219,988.57,-24.4,74,0.40,0.0,1019.20,360.0
2019-12-09 12:40,50.63045,-96.98077,2.5,3.2,230,988.41,-24.4,74,0.40,0.0,1019.04,360.0
2019-12-09 12:50,50.63045,-96.98077,2.7,3.7,233,988.35,-24.4,74,0.40,0.0,1018.98,360.0
2019-12-09 13:00,50.6304516666667,-96.9807733333333,2.4,4.0,237,988.33,-24.2,74,0.40,0.0,1018.95,142.0
2019-12-09 13:10,50.6304533333333,-96.9807716666667,3.4,4.7,249,988.35,-24.0,73,0.40,0.0,1018.96,142.0
2019-12-09 13:20,50.6304283333333,-96.980765,3.9,5.3,255,988.30,-24.1,73,0.39,0.0,1018.90,142.0
2019-12-09 13:30,50.63044,-96.98079,4.4,5.8,261,988.30,-24.1,73,0.39,0.0,1018.91,142.0
2019-12-09 13:40,50.6304516666667,-96.9807733333333,4.1,5.8,260,988.25,-24.0,73,0.39,0.0,1018.86,142.0
2019-12-09 13:50,50.6304533333333,-96.980775,3.3,4.5,264,988.16,-24.0,73,0.38,0.0,1018.78,142.0
2019-12-09 14:00,50.6304516666667,-96.9807733333333,3.4,4.8,261,988.08,-23.8,73,0.38,0.0,1018.68,161.1
2019-12-09 14:10,50.6304516666667,-96.98077,3.7,4.7,254,987.98,-23.7,72,0.38,0.0,1018.56,161.1
2019-12-09 14:20,50.6304516666667,-96.9807716666667,3.4,4.5,237,987.84,-23.9,72,0.39,0.0,1018.43,161.1
2019-12-09 14:30,50.630445,-96.9807733333333,2.8,3.8,223,987.74,-23.9,73,0.40,0.0,1018.34,161.1
2019-12-09 14:40,50.6304483333333,-96.9808066666667,3.1,3.8,216,987.72,-23.7,73,0.49,0.0,1018.30,161.1
2019-12-09 14:50,50.6304533333333,-96.9807766666667,3.3,4.5,207,987.70,-23.3,73,0.41,0.0,1018.25,161.1
2019-12-09 15:00,50.6304516666667,-96.98077,3.6,5.3,200,987.67,-22.9,71,0.41,0.0,1018.19,360.0
2019-12-09 15:10,50.630445,-96.980765,4.3,5.8,197,987.55,-22.6,70,0.40,0.0,1018.05,360.0
2019-12-09 15:20,50.6304383333333,-96.9807566666667,5.0,6.7,194,987.45,-22.1,69,0.40,0.0,1017.92,360.0
2019-12-09 15:30,50.6304383333333,-96.9807583333333,5.6,6.9,193,987.45,-21.7,69,0.40,0.0,1017.88,360.0
2019-12-09 15:40,50.6304383333333,-96.98076,7.0,8.4,187,987.37,-21.6,69,0.40,0.0,1017.78,360.0
2019-12-09 15:50,50.63044,-96.9807616666667,7.4,8.6,186,987.25,-21.3,69,0.40,0.0,1017.64,360.0
2019-12-09 16:00,50.63044,-96.9807633333333,7.3,8.4,187,987.19,-21.0,69,0.41,0.0,1017.55,165.5
2019-12-09 16:10,50.63044,-96.9807616666667,6.6,7.8,183,987.20,-20.8,69,0.41,0.0,1017.56,165.5
2019-12-09 16:20,50.6304416666667,-96.9807633333333,7.5,9.5,175,987.17,-20.6,70,0.41,0.0,1017.52,165.5
2019-12-09 16:30,50.630405,-96.9807683333333,8.3,9.5,167,987.08,-20.6,70,0.41,0.0,1017.41,165.5
2019-12-09 16:40,50.6304366666667,-96.9807833333333,8.1,9.4,172,987.07,-20.3,71,0.41,0.0,1017.36,165.5
2019-12-09 16:50,50.6304416666667,-96.9807783333333,6.8,8.9,178,987.04,-20.0,70,0.41,0.0,1017.29,165.5
2019-12-09 17:00,50.6304466666667,-96.9807883333333,7.0,8.9,174,987.00,-19.8,70,0.41,0.0,1017.21,246.4
2019-12-09 17:10,50.6304366666667,-96.9807916666667,7.5,9.7,173,986.80,-19.6,69,0.41,0.0,1016.97,246.4
2019-12-09 17:20,50.6304416666667,-96.980775,7.2,10.1,174,986.67,-19.3,69,0.41,0.0,1016.79,246.4
2019-12-09 17:30,50.6304433333333,-96.9807633333333,5.9,7.7,177,986.61,-19.0,69,0.41,0.0,1016.70,246.4
2019-12-09 17:40,50.6304466666667,-96.980765,6.0,8.7,177,986.48,-19.0,69,0.41,0.0,1016.55,246.4
2019-12-09 17:50,50.6304466666667,-96.9807666666667,6.1,8.3,185,986.31,-19.0,69,0.41,0.0,1016.36,246.4
2019-12-09 18:00,50.63044,-96.9807333333333,7.7,10.4,178,986.06,-19.0,69,0.41,0.0,1016.09,122.3
2019-12-09 18:10,50.6304483333333,-96.9807766666667,7.1,9.1,186,986.01,-18.9,68,0.42,0.0,1016.02,122.3
2019-12-09 18:20,50.63045,-96.9807683333333,6.3,8.8,187,985.87,-18.7,68,0.42,0.0,1015.86,122.3
2019-12-09 18:30,50.6304183333333,-96.9807916666667,4.9,7.2,191,985.79,-18.1,67,0.42,0.0,1015.73,122.3
2019-12-09 18:40,50.630435,-96.98079,4.0,6.4,189,985.80,-17.8,67,0.42,0.0,1015.70,122.3
2019-12-09 18:50,50.63044,-96.9807816666667,5.1,7.2,192,985.79,-17.7,66,0.43,0.0,1015.67,122.3
2019-12-09 19:00,50.6304316666667,-96.9807816666667,5.5,6.9,212,985.81,-17.9,67,0.42,0.0,1015.69,229.4
2019-12-09 19:10,50.6304366666667,-96.9807766666667,4.4,6.4,208,985.72,-18.1,68,0.42,0.0,1015.59,229.4
2019-12-09 19:20,50.6304366666667,-96.98077,3.7,5.9,205,985.58,-17.9,69,0.42,0.0,1015.42,229.4
2019-12-09 19:30,50.6304383333333,-96.9807683333333,4.7,6.7,194,985.44,-18.0,69,0.42,0.0,1015.28,229.4
2019-12-09 19:40,50.6304383333333,-96.9807683333333,4.1,6.3,213,985.27,-17.9,70,0.42,0.0,1015.10,229.4
2019-12-09 19:50,50.6304416666667,-96.98077,5.3,7.6,218,985.16,-17.8,70,0.42,0.0,1014.98,229.4
2019-12-09 20:00,50.6304416666667,-96.98077,4.5,6.5,201,985.18,-17.9,71,0.43,0.0,1015.00,107.7
2019-12-09 20:10,50.6304416666667,-96.9807716666667,3.8,6.8,217,985.10,-17.7,70,0.44,0.0,1014.90,107.7
2019-12-09 20:20,50.63044,-96.9807716666667,3.0,4.8,208,985.11,-17.6,69,0.45,0.0,1014.87,107.7
2019-12-09 20:30,50.6304216666667,-96.9807866666667,2.5,4.9,200,985.07,-17.5,69,0.46,0.0,1014.80,107.7
2019-12-09 20:40,50.6304333333333,-96.980775,1.8,4.4,257,985.17,-17.2,69,0.48,0.0,1014.88,107.7
2019-12-09 20:50,50.6304333333333,-96.9807683333333,2.4,5.1,191,985.03,-17.3,69,0.48,0.0,1014.75,107.7
2019-12-09 21:00,50.6304333333333,-96.9807666666667,2.4,4.8,166,984.97,-17.3,69,0.49,0.0,1014.70,237.7
2019-12-09 21:10,50.6304366666667,-96.9807666666667,2.3,4.0,165,985.00,-17.2,69,0.49,0.0,1014.72,237.7
2019-12-09 21:20,50.6304383333333,-96.9807716666667,1.9,3.7,120,985.07,-16.6,70,0.49,0.0,1014.76,237.7
2019-12-09 21:30,50.63044,-96.9807716666667,1.9,3.3,246,985.50,-17.0,69,0.49,0.0,1015.22,237.7
2019-12-09 21:40,50.63044,-96.9807733333333,3.4,6.1,296,985.68,-16.8,68,0.48,0.0,1015.38,237.7
2019-12-09 21:50,50.63044,-96.9807716666667,3.2,5.0,303,985.72,-16.7,68,0.48,0.0,1015.43,237.7
2019-12-09 22:00,50.6304416666667,-96.9807733333333,1.0,2.5,292,985.79,-16.7,69,0.48,0.0,1015.49,48.3
2019-12-09 22:10,50.6304416666667,-96.9807733333333,0.8,2.3,80,985.69,-16.3,70,0.48,0.0,1015.35,48.3
2019-12-09 22:20,50.6304416666667,-96.9807733333333,0.3,1.8,56,985.71,-16.1,71,0.48,0.0,1015.36,48.3
2019-12-09 22:30,50.6304416666667,-96.980775,2.3,4.9,334,985.82,-16.3,70,0.48,0.0,1015.47,48.3
2019-12-09 22:40,50.6304483333333,-96.9807933333333,3.7,4.7,321,985.93,-16.4,70,0.49,0.0,1015.59,48.3
2019-12-09 22:50,50.6304433333333,-96.9807716666667,4.5,6.9,323,986.10,-16.3,70,0.49,0.0,1015.76,48.3
2019-12-09 23:00,50.630445,-96.9807733333333,5.4,9.4,345,986.18,-16.2,72,0.50,0.0,1015.83,270.0
2019-12-09 23:10,50.6304466666667,-96.9807733333333,8.0,9.6,358,986.28,-16.1,74,0.51,0.0,1015.90,270.0
2019-12-09 23:20,50.6304433333333,-96.98077,8.6,11.2,352,986.40,-16.3,74,0.51,0.0,1016.05,270.0
2019-12-09 23:30,50.6304433333333,-96.9807683333333,8.6,11.3,347,986.55,-16.4,73,0.52,0.0,1016.21,270.0
2019-12-09 23:40,50.6304233333333,-96.9807516666667,10.3,12.5,348,986.65,-16.6,72,0.52,0.0,1016.32,270.0
2019-12-09 23:50,50.630435,-96.980765,8.7,10.7,350,986.81,-16.7,74,0.52,0.0,1016.49,270.0
